When you browse on this site, cookies collect data to enhance your experience and personalize the content and advertising you see.
Visit our Privacy Policy to learn more. By continuing to use the site, you agree to this use of cookies and data.
  • In Czech Republic
  • List of Countries
  • For 7 days
  • Water Temperature
  • Satellite Maps
  • Weather Map
  • Weather Widgets
  • user-avatar
    Login

    Hourly Weather Usveya

    Today, 17 February, Sunday

    Time Temperature Precipitation Wind Pressure Humidity
    00:00 0°C° 0 mm 5 mps 747 mmHg 77%
    01:00 0°C° 0 mm 5 mps 747 mmHg 78%
    02:00 -1°C° 0 mm 6 mps 747 mmHg 79%
    03:00 -1°C° 0 mm 6 mps 746 mmHg 81%
    04:00 -1°C° 0 mm 6 mps 746 mmHg 84%
    05:00 -2°C° 0 mm 6 mps 745 mmHg 86%
    06:00 0°C° 0 mm 5 mps 746 mmHg 88%
    07:00 0°C° 0 mm 5 mps 746 mmHg 89%
    08:00 0°C° 0 mm 5 mps 746 mmHg 91%
    09:00 0°C° 0 mm 5 mps 746 mmHg 89%
    10:00 +1°C° 0 mm 5 mps 747 mmHg 87%
    11:00 +1°C° 0 mm 5 mps 747 mmHg 86%
    12:00 +2°C° 0 mm 6 mps 747 mmHg 80%
    13:00 +2°C° 0 mm 6 mps 748 mmHg 73%
    14:00 +2°C° 0 mm 6 mps 748 mmHg 67%
    15:00 +1°C° 0 mm 5 mps 748 mmHg 69%
    16:00 0°C° 0 mm 5 mps 749 mmHg 71%
    17:00 -1°C° 0 mm 5 mps 749 mmHg 73%
    18:00 -1°C° 0 mm 5 mps 750 mmHg 75%
    19:00 -2°C° 0 mm 4 mps 750 mmHg 78%
    20:00 -2°C° 0 mm 4 mps 751 mmHg 81%
    21:00 -3°C° 0 mm 4 mps 751 mmHg 82%
    22:00 -3°C° 0 mm 4 mps 751 mmHg 84%
    23:00 -2°C° 0 mm 3 mps 752 mmHg 85%

    Tomorrow, 18 February, Monday

    Time Temperature Precipitation Wind Pressure Humidity
    00:00 -4°C° 0 mm 3 mps 752 mmHg 85%
    01:00 -4°C° 0 mm 3 mps 753 mmHg 86%
    02:00 -4°C° 0 mm 3 mps 753 mmHg 86%
    03:00 -4°C° 0 mm 3 mps 754 mmHg 86%
    04:00 -4°C° 0 mm 3 mps 754 mmHg 86%
    05:00 -5°C° 0 mm 3 mps 754 mmHg 86%
    06:00 -4°C° 0 mm 2 mps 754 mmHg 85%
    07:00 -4°C° 0 mm 2 mps 755 mmHg 85%
    08:00 -4°C° 0 mm 2 mps 755 mmHg 84%
    09:00 -3°C° 0 mm 2 mps 756 mmHg 78%
    10:00 -2°C° 0 mm 2 mps 756 mmHg 71%
    11:00 -2°C° 0 mm 2 mps 756 mmHg 65%
    12:00 +1°C° 0 mm 1 mps 756 mmHg 61%
    13:00 +1°C° 0 mm 1 mps 756 mmHg 57%
    14:00 +2°C° 0 mm 1 mps 756 mmHg 53%
    15:00 +1°C° 0 mm 1 mps 756 mmHg 57%
    16:00 +1°C° 0 mm 1 mps 756 mmHg 60%
    17:00 0°C° 0 mm 1 mps 756 mmHg 64%
    18:00 0°C° 0 mm 1 mps 756 mmHg 65%
    19:00 -1°C° 0 mm 1 mps 756 mmHg 67%
    20:00 -3°C° 0 mm 2 mps 756 mmHg 69%
    21:00 -3°C° 0 mm 2 mps 756 mmHg 70%
    22:00 -3°C° 0 mm 2 mps 756 mmHg 71%
    23:00 -4°C° 0 mm 3 mps 756 mmHg 72%

    Day after tomorrow, 19 February, Tuesday

    Time Temperature Precipitation Wind Pressure Humidity
    00:00 -4°C° 0 mm 3 mps 755 mmHg 71%
    01:00 -4°C° 0 mm 3 mps 755 mmHg 71%
    02:00 -4°C° 0 mm 4 mps 755 mmHg 71%
    03:00 -4°C° 0 mm 4 mps 754 mmHg 71%
    04:00 -4°C° 0 mm 4 mps 754 mmHg 71%
    05:00 -4°C° 0 mm 4 mps 753 mmHg 71%
    06:00 -4°C° 0 mm 4 mps 753 mmHg 72%
    07:00 -5°C° 0 mm 5 mps 753 mmHg 72%
    08:00 -4°C° 0 mm 5 mps 752 mmHg 73%
    09:00 -2°C° 0 mm 5 mps 752 mmHg 71%
    10:00 -1°C° 0 mm 5 mps 752 mmHg 68%
    11:00 -1°C° 0 mm 6 mps 751 mmHg 66%
    12:00 +1°C° 0 mm 6 mps 751 mmHg 66%
    13:00 +1°C° 0 mm 6 mps 750 mmHg 66%
    14:00 +2°C° 0 mm 6 mps 749 mmHg 66%
    15:00 +1°C° 0 mm 6 mps 749 mmHg 70%
    16:00 +1°C° 0 mm 6 mps 748 mmHg 73%
    17:00 0°C° 0 mm 5 mps 748 mmHg 77%
    18:00 0°C° 0 mm 5 mps 747 mmHg 79%
    19:00 0°C° 0 mm 5 mps 747 mmHg 82%
    20:00 -1°C° 0 mm 5 mps 746 mmHg 84%
    21:00 0°C° 0 mm 5 mps 746 mmHg 86%
    22:00 0°C° 0 mm 5 mps 745 mmHg 88%
    23:00 0°C° 0 mm 5 mps 745 mmHg 89%

    20 February, Wednesday

    Time Temperature Precipitation Wind Pressure Humidity
    00:00 0°C° 0 mm 5 mps 744 mmHg 90%
    01:00 -1°C° 0 mm 5 mps 743 mmHg 90%
    02:00 -1°C° 0 mm 5 mps 743 mmHg 90%
    03:00 -1°C° 0.3 mm 5 mps 742 mmHg 90%
    04:00 0°C° 0.3 mm 5 mps 742 mmHg 90%
    05:00 0°C° 0.3 mm 5 mps 742 mmHg 90%
    06:00 0°C° 0.2 mm 5 mps 742 mmHg 90%
    07:00 0°C° 0.2 mm 5 mps 742 mmHg 91%
    08:00 0°C° 0.2 mm 4 mps 742 mmHg 92%
    09:00 +1°C° 0.1 mm 4 mps 742 mmHg 90%
    10:00 +1°C° 0.1 mm 4 mps 742 mmHg 89%
    11:00 +1°C° 0.1 mm 5 mps 742 mmHg 87%
    12:00 +2°C° 0.1 mm 5 mps 742 mmHg 84%
    13:00 +2°C° 0.1 mm 5 mps 742 mmHg 81%
    14:00 +2°C° 0.1 mm 5 mps 742 mmHg 77%
    15:00 +2°C° 0.2 mm 5 mps 741 mmHg 79%
    16:00 +1°C° 0.2 mm 6 mps 741 mmHg 81%
    17:00 +1°C° 0.2 mm 6 mps 741 mmHg 83%
    18:00 -1°C° 0.1 mm 6 mps 742 mmHg 81%
    19:00 -1°C° 0.1 mm 5 mps 742 mmHg 79%
    20:00 -1°C° 0.1 mm 5 mps 742 mmHg 77%
    21:00 -2°C° 0 mm 6 mps 743 mmHg 77%
    22:00 -3°C° 0 mm 6 mps 743 mmHg 78%
    23:00 -3°C° 0 mm 7 mps 744 mmHg 78%

    21 February, Thursday

    Time Temperature Precipitation Wind Pressure Humidity
    00:00 -3°C° 0 mm 7 mps 744 mmHg 78%
    01:00 -3°C° 0 mm 7 mps 744 mmHg 78%
    02:00 -3°C° 0 mm 7 mps 745 mmHg 78%
    03:00 -4°C° 0 mm 7 mps 745 mmHg 75%
    04:00 -4°C° 0 mm 7 mps 746 mmHg 71%
    05:00 -6°C° 0 mm 7 mps 746 mmHg 68%
    06:00 -7°C° 0 mm 7 mps 747 mmHg 66%
    07:00 -8°C° 0 mm 7 mps 748 mmHg 63%
    08:00 -9°C° 0 mm 7 mps 748 mmHg 61%
    09:00 -8°C° 0 mm 7 mps 749 mmHg 59%
    10:00 -8°C° 0 mm 7 mps 750 mmHg 57%
    11:00 -8°C° 0 mm 7 mps 750 mmHg 55%
    12:00 -6°C° 0 mm 6 mps 751 mmHg 55%
    13:00 -6°C° 0 mm 6 mps 751 mmHg 54%
    14:00 -6°C° 0 mm 6 mps 751 mmHg 53%
    15:00 -6°C° 0 mm 6 mps 752 mmHg 54%
    16:00 -6°C° 0 mm 5 mps 752 mmHg 56%
    17:00 -7°C° 0 mm 5 mps 752 mmHg 57%
    18:00 -7°C° 0 mm 5 mps 753 mmHg 58%
    19:00 -7°C° 0 mm 4 mps 753 mmHg 60%
    20:00 -8°C° 0 mm 4 mps 754 mmHg 62%
    21:00 -8°C° 0 mm 4 mps 754 mmHg 63%
    22:00 -8°C° 0 mm 4 mps 754 mmHg 64%
    23:00 -8°C° 0 mm 3 mps 755 mmHg 66%

    22 February, Friday

    Time Temperature Precipitation Wind Pressure Humidity
    00:00 -8°C° 0 mm 3 mps 755 mmHg 66%
    01:00 -8°C° 0 mm 3 mps 755 mmHg 66%
    02:00 -8°C° 0 mm 3 mps 756 mmHg 66%
    03:00 -9°C° 0 mm 4 mps 756 mmHg 66%
    04:00 -10°C° 0 mm 4 mps 757 mmHg 66%
    05:00 -10°C° 0 mm 4 mps 757 mmHg 66%
    06:00 -11°C° 0 mm 5 mps 758 mmHg 65%
    07:00 -12°C° 0 mm 5 mps 758 mmHg 64%
    08:00 -12°C° 0 mm 5 mps 759 mmHg 63%
    09:00 -11°C° 0 mm 5 mps 759 mmHg 56%
    10:00 -11°C° 0 mm 6 mps 760 mmHg 50%
    11:00 -10°C° 0 mm 6 mps 761 mmHg 43%
    12:00 -10°C° 0 mm 6 mps 761 mmHg 41%
    13:00 -9°C° 0 mm 6 mps 762 mmHg 39%
    14:00 -8°C° 0 mm 7 mps 762 mmHg 36%
    15:00 -9°C° 0 mm 6 mps 763 mmHg 41%
    16:00 -9°C° 0 mm 6 mps 763 mmHg 45%
    17:00 -8°C° 0 mm 5 mps 764 mmHg 50%
    18:00 -8°C° 0 mm 5 mps 765 mmHg 53%
    19:00 -10°C° 0 mm 5 mps 766 mmHg 55%
    20:00 -10°C° 0 mm 5 mps 766 mmHg 58%
    21:00 -9°C° 0 mm 4 mps 767 mmHg 60%
    22:00 -9°C° 0 mm 4 mps 767 mmHg 63%
    23:00 -9°C° 0 mm 3 mps 768 mmHg 66%
    Show more